Terminal Aerodrome Forecast
Issued by NWS Dallas/Fort Worth, TX

Home | Current Version | Previous Version | Text Only | Print | Product List | Glossary On
Versions: 1 2 3 4 5 6 7 8 9 10 11 12 13 14 15 16 17 18 19 20 21 22 23 24 25 26 27 28
000
FTUS44 KFWD 101503 AAB
TAFDFW
TAF AMD
KDFW 101503Z 1015/1118 16013KT P6SM OVC045
     FM110200 17016KT P6SM BKN025
     FM110600 18018KT P6SM -DZ OVC012
     FM111700 20020G30KT P6SM BKN020=

USA.gov is the U.S. government's official web portal to all federal, state and local government web resources and services.